This is the latest recevied weather packets stored in our database for station/object W8BS. If no packets are shown the sender has not sent any weather packets the latest 10 day(s).
| Time | Temp. | Humidity | Pressure | Rain* | Wind** | Luminosity | Snow |
|---|---|---|---|---|---|---|---|
| 1777647956 | 12.78° C | 50% | 1012.3 hPa | 0 mm | - | 390 W/m² | - |
| 1777647654 | 12.22° C | 56% | 1012.5 hPa | 0 mm | - | 544 W/m² | - |
| 1777647349 | 12.22° C | 60% | 1012.4 hPa | 0 mm | - | 462 W/m² | - |
| 1777647048 | 11.67° C | 53% | 1012.5 hPa | 0 mm | - | 539 W/m² | - |
| 1777646744 | 12.22° C | 55% | 1012.5 hPa | 0 mm | - | 402 W/m² | - |
| 1777646438 | 12.22° C | 60% | 1012.6 hPa | 0 mm | - | 452 W/m² | - |
| 1777646135 | 11.67° C | 56% | 1012.6 hPa | 0 mm | - | 757 W/m² | - |
| 1777645833 | 10.56° C | 59% | 1012.6 hPa | 0 mm | - | 861 W/m² | - |
| 1777645530 | 10.56° C | 59% | 1012.4 hPa | 0 mm | - | 442 W/m² | - |
| 1777645226 | 10.56° C | 66% | 1012.4 hPa | 0 mm | - | 396 W/m² | - |
| 1777644921 | 10° C | 70% | 1012.5 hPa | 0 mm | - | 448 W/m² | - |
| 1777644620 | 9.44° C | 66% | 1012.2 hPa | 0 mm | - | 408 W/m² | - |
| 1777644315 | 8.89° C | 84% | 1012.5 hPa | 0 mm | - | 376 W/m² | - |
| 1777644011 | 8.89° C | 88% | 1012.5 hPa | 0 mm | - | 321 W/m² | - |
| 1777643709 | 7.78° C | 89% | 1012.7 hPa | 0 mm | - | 281 W/m² | - |
| 1777643406 | 7.78° C | 93% | 1012.7 hPa | 0 mm | - | 393 W/m² | - |
| 1777643103 | 7.78° C | 95% | 1012.8 hPa | 0 mm | - | 396 W/m² | - |
| 1777642799 | 6.67° C | 95% | 1012.7 hPa | 0 mm | - | 410 W/m² | - |
| 1777642496 | 6.67° C | 98% | 1013 hPa | 0 mm | - | 283 W/m² | - |
| 1777642192 | 6.11° C | 99% | 1013.1 hPa | 0 mm | - | 229 W/m² | - |
| 1777641890 | 6.11° C | 99% | 1012.8 hPa | 0 mm | - | 256 W/m² | - |
| 1777641590 | 5.56° C | 99% | 1012.9 hPa | 0 mm | - | 224 W/m² | - |
| 1777641290 | 5.56° C | 99% | 1013.1 hPa | 0 mm | - | 219 W/m² | - |
| 1777640986 | 5.56° C | 99% | 1013.2 hPa | 0 mm | - | 245 W/m² | - |
| 1777640683 | 5° C | 99% | 1013.3 hPa | 0 mm | - | 224 W/m² | - |
* Rain latest hour (hover to see other rain measurements)
** Current wind speed in m/s (hover to see current wind gust speed)